Weather History for LEBB - October, 2012

Change the Weather History Date:

Monday, October 8, 2012

  Actual Average Record
Temperature  
Mean Temperature 76 °F -  
Max Temperature 87 °F 67 °F - (-1)
Min Temperature 64 °F 51 °F - (-1)
Cooling Degree Days 10    
Growing Degree Days 26 (Base 50)    
Moisture  
Dew Point 62 °F    
Average Humidity 69    
Maximum Humidity 88    
Minimum Humidity 38    
Precipitation  
Precipitation 0.00 in - - ()
Sea Level Pressure  
Sea Level Pressure 30.05 in    
Wind  
Wind Speed 4 mph ()    
Max Wind Speed 21 mph    
Max Gust Speed 36 mph    
Visibility 6.2 miles    
Events      
Averages and records for this station are not official NWS values.
T = Trace of Precipitation, MM = Missing Value Source: Averaged Metar Reports

Daily Weather History Graph

Daily Weather History Graph

Search for Another Location

Airport or City:

Trip Planner

Search our weather history database for the weather conditions in past years. The results will help you decide how hot, cold, wet, or windy it might be!

Date:

Astronomy

Oct. 08, 2012 Rise Set
Actual Time 8:17 AM CEST 7:39 PM CEST
Civil Twilight 7:48 AM CEST 8:08 PM CEST
Nautical Twilight 7:15 AM CEST 8:41 PM CEST
Astronomical Twilight 6:42 AM CEST 9:14 PM CEST
Moon 12:32 AM CEST (10/8) 3:30 PM CEST (10/8)
Length of Visible Light 12h 19m
Length of Day
11h 22m
Waning Gibbous, 49% of the Moon is Illuminated
Oct 8
Waning Gibbous
Oct 15
New
Oct 22
First Quarter
Oct 29
Full
Nov 7
Last Quarter

Hourly Weather History & Observations

Time (CEST) Temp. Heat Index Dew Point Humidity Pressure Visibility Wind Dir Wind Speed Gust Speed Precip Events Conditions
5:00 AM 66.2 °F - 60.8 °F 83% 30.04 in - SE 8.1 mph - N/A   Clear
5:30 AM 66.2 °F - 60.8 °F 83% 30.04 in - Variable 1.2 mph - N/A   Clear
6:00 AM 66.2 °F - 60.8 °F 83% 30.01 in - Variable 2.3 mph - N/A   Clear
6:30 AM 64.4 °F - 60.8 °F 88% 30.01 in - SE 6.9 mph - N/A   Clear
7:00 AM 68.0 °F - 60.8 °F 78% 30.01 in - Variable 2.3 mph - N/A   Clear
7:30 AM 68.0 °F - 60.8 °F 78% 30.01 in - Variable 2.3 mph - N/A   Clear
8:00 AM 68.0 °F - 60.8 °F 78% 30.01 in - Calm Calm - N/A   Clear
8:30 AM 69.8 °F - 60.8 °F 73% 30.01 in - Variable 2.3 mph - N/A   Clear
9:00 AM 69.8 °F - 60.8 °F 73% 30.01 in - Calm Calm - N/A   Clear
9:30 AM 71.6 °F - 62.6 °F 73% 30.01 in - Variable 2.3 mph - N/A   Clear
10:00 AM 75.2 °F - 60.8 °F 61% 30.01 in - NNE 3.5 mph - N/A   Clear
10:30 AM 75.2 °F - 60.8 °F 61% 30.04 in - Calm Calm - N/A   Clear
11:00 AM 78.8 °F - 60.8 °F 54% 30.04 in - Variable 1.2 mph - N/A   Clear
11:30 AM 82.4 °F 82.9 °F 60.8 °F 48% 30.01 in - Variable 1.2 mph - N/A   Clear
12:00 PM 84.2 °F 84.4 °F 60.8 °F 45% 30.01 in - Variable 2.3 mph - N/A   Clear
12:30 PM 86.0 °F 85.4 °F 59.0 °F 40% 30.01 in - Variable 2.3 mph - N/A   Clear
1:00 PM 87.8 °F 87.1 °F 59.0 °F 38% 30.01 in - Variable 4.6 mph 19.6 mph N/A   Clear
1:30 PM 87.8 °F 87.1 °F 59.0 °F 38% 30.01 in - WSW 6.9 mph - N/A   Clear
2:00 PM 86.0 °F 86.6 °F 62.6 °F 45% 30.01 in - West 11.5 mph - N/A   Clear
2:30 PM 82.4 °F 84.6 °F 66.2 °F 58% 30.04 in - NW 15.0 mph - N/A   Clear
3:00 PM 78.8 °F - 66.2 °F 65% 30.04 in - NW 19.6 mph 35.7 mph N/A   Clear
3:30 PM 73.4 °F - 66.2 °F 78% 30.06 in 6.2 mi NW 20.7 mph - N/A   Partly Cloudy
4:00 PM 73.4 °F - 64.4 °F 73% 30.06 in 6.2 mi NW 13.8 mph - N/A   Partly Cloudy
4:30 PM 73.4 °F - 64.4 °F 73% 30.06 in 6.2 mi NNW 12.7 mph - N/A   Partly Cloudy
5:00 PM 73.4 °F - 64.4 °F 73% 30.06 in 6.2 mi NW 4.6 mph - N/A   Partly Cloudy
5:30 PM 75.2 °F - 64.4 °F 69% 30.06 in 6.2 mi NW 3.5 mph - N/A   Partly Cloudy
6:00 PM 75.2 °F - 64.4 °F 69% 30.06 in 6.2 mi NNW 8.1 mph - N/A   Partly Cloudy
6:30 PM 73.4 °F - 64.4 °F 73% 30.09 in 6.2 mi NW 9.2 mph - N/A   Partly Cloudy
7:00 PM 73.4 °F - 62.6 °F 69% 30.09 in 6.2 mi NNW 4.6 mph - N/A   Scattered Clouds
7:30 PM 71.6 °F - 62.6 °F 73% 30.09 in 6.2 mi North 3.5 mph - N/A   Partly Cloudy
8:00 PM 71.6 °F - 62.6 °F 73% 30.09 in 6.2 mi Variable 2.3 mph - N/A   Partly Cloudy
8:30 PM 71.6 °F - 62.6 °F 73% 30.12 in 6.2 mi Variable 1.2 mph - N/A   Partly Cloudy
9:00 PM 69.8 °F - 62.6 °F 78% 30.12 in 6.2 mi Variable 2.3 mph - N/A   Scattered Clouds
9:30 PM 69.8 °F - 62.6 °F 78% 30.12 in 6.2 mi Variable 1.2 mph - N/A   Scattered Clouds
10:00 PM 69.8 °F - 62.6 °F 78% 30.12 in 6.2 mi Variable 2.3 mph - N/A   Scattered Clouds
10:30 PM 69.8 °F - 62.6 °F 78% 30.12 in 6.2 mi Variable 2.3 mph - N/A   Scattered Clouds
11:00 PM 69.8 °F - 62.6 °F 78% 30.12 in 6.2 mi Variable 2.3 mph - N/A   Scattered Clouds
11:30 PM 69.8 °F - 62.6 °F 78% 30.12 in 6.2 mi Variable 1.2 mph - N/A   Scattered Clouds